Location: Radomski Observatory
(40.2854°N, 79.5145°W)
Time: 08:33:28
(UTC-04:00)

Cosmos 1072 Rocket - Visible Passes

Search period start: 21 June 2018 00:00
Search period end: 01 July 2018 00:00
Orbit: 947 x 1010 km, 82.9° (Epoch: 20 June)

Date Brightness Start Highest point End Pass type
(mag) Time Alt. Az. Time Alt. Az. Time Alt. Az.
23 Jun 7.2 04:46:15 10° NNE 04:50:18 18° ENE 04:54:22 10° ESE visible
24 Jun 6.5 05:11:34 10° NNE 05:17:02 33° ENE 05:22:33 10° SE visible
26 Jun 7.2 04:20:10 10° NNE 04:23:51 16° ENE 04:27:32 10° ESE visible
27 Jun 6.5 04:45:17 10° NNE 04:50:38 29° ENE 04:55:59 10° SE visible
28 Jun 5.4 05:11:09 10° N 05:17:12 54° E 05:23:18 10° SSE visible
29 Jun 7.2 03:54:07 10° NE 03:57:23 14° ENE 04:00:39 10° E visible
30 Jun 6.6 04:19:03 10° NNE 04:24:12 27° ENE 04:29:23 10° SE visible
